Location: Davidschlag
(48.4333°N, 14.2833°E)
Time: 15:32:46
(UTC+00:00)

Cosmos 1814 Rocket - Pass Details

Date: 27 February 2020
Orbit: 744 x 788 km, 74.1° (Epoch: 27 March)

Event Time Altitude Azimuth Distance (km) Brightness Sun altitude
Rises 18:54:31 0° 199° (SSW) 3,173 7.3 -22.5°
Reaches altitude 10° 18:56:51 10° 199° (SSW) 2,254 6.5 -22.9°
Maximum altitude 19:01:57 86° 112° (ESE) 755 3.8 -23.7°
Drops below altitude 10° 19:07:08 10° 24° (NNE) 2,281 6.4 -24.5°
Sets 19:09:30 0° 24° (NNE) 3,215 7.2 -24.9°
